User: anonymous
Location: Mentone
(34.5413°N, 85.5351°W)
Time: 08:59:42
(UTC-05:00)
Language:

Cosmos 2026 Rocket - Orbit

View from above orbital plane
View from above orbital plane
View from above satellite
View from above satellite

Ground track
Ground track

The orbit data is extracted from the following two-line orbital elements,

1 20046U 89042B   14262.17420122  .00000068  00000-0  52842-4 0  3598
2 20046 082.9397 329.8462 0041579 359.8359 055.4563 13.77974551271258
Epoch (UTC): 19 September 2014 04:10:50
Eccentricity: 0.0041579
inclination: 82.9397°
perigee height: 940 km
apogee height: 1001 km
right ascension of ascending node: 329.8462°
argument of perigee: 359.8359°
revolutions per day: 13.77974551
mean anomaly at epoch: 55.4563°
orbit number at epoch: 27125

The dashed part of the orbit path shows where the satellite is in the earth's shadow,  

DLR